Stations météo

réclame
Mon MeteoGroup
Emden, Allemagne (10200): Température de l'air & dewpoint: 17.01.2018 02:00:00 - 23.01.2018 02:00:00 (CET)Emden, Allemagne (10200): Température de l'air 5cm & Température de l'air -5cm: 17.01.2018 02:00:00 - 23.01.2018 02:00:00 (CET)Emden, Allemagne (10200): Température de l'air -20cm & Température de l'air -100cm: 17.01.2018 02:00:00 - 23.01.2018 02:00:00 (CET)Emden, Allemagne (10200): Vitesse du vent & gusts: 17.01.2018 02:00:00 - 23.01.2018 02:00:00 (CET)Emden, Allemagne (10200): Direction du vent: 17.01.2018 02:00:00 - 23.01.2018 02:00:00 (CET)Emden, Allemagne (10200): reduced air pressure: 17.01.2018 02:00:00 - 23.01.2018 02:00:00 (CET)Emden, Allemagne (10200): visibility: 17.01.2018 02:00:00 - 23.01.2018 02:00:00 (CET)Emden, Allemagne (10200): Ensoleillement: 17.01.2018 02:00:00 - 23.01.2018 02:00:00 (CET)Emden, Allemagne (10200): Quantités de précipitations: 17.01.2018 02:00:00 - 23.01.2018 02:00:00 (CET)
Date & Time tt [°C] td [°C] tt 5cm [°C] tt -5cm [°C] tt -20cm [°C] tt -100cm [°C] ff [km/h] ff [knt] fx [km/h] fx [knt] dd ppp [hPa] vv [km] sd [min] rr [mm]
23.01.2018 02:00:00 5,5 4,6 4,9 3,6 2,9 6,7 10 5 18 10 WSW 1015,5 13 0 0,0
23.01.2018 01:00:00 5,6 4,6 5,1 3,6 2,9 6,7 14 8 23 12 W 1015,0 14 0 0,0
23.01.2018 00:00:00 5,5 4,5 5,0 3,6 2,8 6,7 15 8 25 13 W 1014,3 13 0 0,0
22.01.2018 23:00:00 5,5 4,5 5,0 3,6 2,7 6,7 16 9 25 13 W 1013,2 12 0 0,0
22.01.2018 22:00:00 5,7 4,7 5,1 3,6 2,7 6,7 13 7 24 13 W 1012,2 13 0 0,0
22.01.2018 21:00:00 5,5 4,6 5,1 3,5 2,6 6,7 14 8 24 13 W 1011,4 11 0 0,0
22.01.2018 20:00:00 5,5 4,6 5,1 3,5 2,5 6,7 16 9 25 13 W 1010,6 11 0 0,0
22.01.2018 19:00:00 5,4 4,6 4,8 3,4 2,4 6,7 14 8 21 11 W 1009,6 13 0 0,0
22.01.2018 18:00:00 5,6 4,7 5,0 3,5 2,3 6,8 14 8 22 12 W 1008,9 12 0 0,0
22.01.2018 17:00:00 5,8 4,9 5,2 3,5 2,2 6,8 18 10 24 13 W 1007,6 14 0 0,0
22.01.2018 16:00:00 5,9 5,2 5,5 3,4 2,1 6,8 11 6 23 12 W 1006,6 12 0 0,0
22.01.2018 15:00:00 5,0 4,6 5,0 3,1 1,9 6,8 11 6 16 9 W 1005,7 3,8 0 0,0
22.01.2018 14:00:00 4,1 3,9 4,3 2,7 1,8 6,8 9 5 14 7 W 1005,1 3,9 0 0,0
22.01.2018 13:00:00 3,2 3,1 3,6 2,3 1,8 6,8 6 4 13 7 SW 1004,9 3,9 0 0,1
22.01.2018 12:00:00 2,2 2,0 2,5 1,8 1,7 6,8 9 5 17 9 S 1004,9 2,4 0 0,2
22.01.2018 11:00:00 1,7 1,4 1,9 1,3 1,7 6,8 12 6 19 10 SSE 1004,6 2,4 0 0,1
22.01.2018 10:00:00 1,3 1,0 1,3 1,0 1,7 6,8 17 9 27 14 SSE 1004,4 2,8 0 0,0
22.01.2018 09:00:00 1,1 0,7 1,0 0,9 1,7 6,8 19 11 26 14 SE 1004,5 3,5 0 0,0
22.01.2018 08:00:00 0,7 0,3 0,5 0,8 1,7 6,8 23 12 32 18 SE 1004,3 2,1 0 0,0
22.01.2018 07:00:00 0,6 0,2 0,5 0,7 1,7 6,8 20 11 32 17 ESE 1004,8 2,0 0 0,4
22.01.2018 06:00:00 0,8 0,2 0,4 0,9 1,7 6,8 21 11 31 17 ESE 1005,5 1,5 0 0,3
22.01.2018 05:00:00 1,5 0,2 1,0 0,8 1,7 6,8 18 10 28 15 SE 1006,5 3,7 0 0,1
22.01.2018 04:00:00 1,6 0,2 1,2 0,8 1,7 6,8 18 10 32 17 SE 1006,9 6 0 0,0
22.01.2018 03:00:00 1,5 0,5 1,0 0,7 1,7 6,8 23 12 30 16 SE 1007,3 5 0 0,0
22.01.2018 02:00:00 1,5 0,6 0,9 0,6 1,7 6,8 18 10 27 15 SE 1009,1 5 0 0,0
22.01.2018 01:00:00 1,4 0,5 0,8 0,5 1,7 6,8 20 11 26 14 SE 1009,8 7 0 0,0
22.01.2018 00:00:00 1,2 0,4 0,6 0,5 1,7 6,8 14 8 20 11 SSE 1011,5 7 0 0,0
21.01.2018 23:00:00 0,9 0,4 0,4 0,4 1,7 6,8 13 7 18 10 SSE 1012,2 6 0 0,0
21.01.2018 22:00:00 0,9 0,5 0,4 0,4 1,7 6,8 11 6 16 9 SSE 1013,0 6 0 0,0
21.01.2018 21:00:00 0,6 0,4 0,0 0,4 1,8 6,8 11 6 14 8 SSE 1013,3 4,1 0 0,0
21.01.2018 20:00:00 0,9 0,7 0,0 0,4 1,8 6,8 10 5 15 8 SSE 1014,3 4,5 0 0,0
21.01.2018 19:00:00 0,9 0,8 -0,1 0,6 1,8 6,8 11 6 16 8 SSE 1014,6 5 0 0,0
21.01.2018 18:00:00 0,4 0,4 0,0 0,8 1,8 6,8 11 6 16 8 SSE 1014,9 0,4 0 0,0
21.01.2018 17:00:00 0,2 0,2 -0,1 1,1 1,7 6,8 11 6 15 8 SE 1015,1 0,2 6 0,0
21.01.2018 16:00:00 2,1 1,5 2,1 1,4 1,7 6,8 10 5 14 8 SSE 1015,1 5 27 0,0
21.01.2018 15:00:00 3,9 2,2 4,5 1,0 1,7 6,8 9 5 11 6 SE 1014,7 23 10 0,0
21.01.2018 14:00:00 3,6 2,2 3,7 0,6 1,7 6,8 9 5 11 6 SE 1014,4 27 20 0,0
21.01.2018 13:00:00 3,8 1,8 4,4 0,5 1,7 6,8 6 3 8 4 ESE 1013,8 25 60 0,0
21.01.2018 12:00:00 2,5 0,7 3,5 0,4 1,7 6,8 3 2 9 5 E 1014,0 21 22 0,0
21.01.2018 11:00:00 2,8 0,7 1,7 0,3 1,7 6,8 7 4 15 8 W 1013,0 37 34 0,0
21.01.2018 10:00:00 0,9 0,2 0,4 0,3 1,7 6,8 6 3 14 8 W 1012,3 10 49 0,0
21.01.2018 09:00:00 -0,6 -0,8 -2,6 0,3 1,8 6,8 7 4 10 5 WSW 1011,1 8 0 0,0
21.01.2018 08:00:00 -1,4 -1,6 -5,2 0,4 1,8 6,9 5 3 9 5 WSW 1009,9 2,6 0 0,0
21.01.2018 07:00:00 -1,9 -2,2 -3,4 0,4 1,9 6,9 3 2 6 4 SW 1008,8 4,6 0 0,0
21.01.2018 06:00:00 -2,1 -2,3 -4,7 0,4 1,9 6,9 5 3 6 3 SSW 1007,7 1,9 0 0,0
21.01.2018 05:00:00 -1,1 -1,3 -4,0 0,5 1,9 6,9 4 2 8 5 SW 1006,8 0,2 0 0,1
21.01.2018 04:00:00 0,2 -0,1 -1,0 0,5 2,0 6,9 2 1 18 10 WNW 1005,8 2,9 0 0,4
21.01.2018 03:00:00 -0,6 -1,0 -2,9 0,5 2,0 6,9 3 2 10 5 SE 1005,2 3,2 0 0,0
21.01.2018 02:00:00 0,2 -0,3 -1,9 0,6 2,1 6,9 3 2 7 4 NW 1004,1 4,2 0 0,0
21.01.2018 01:00:00 0,4 0,1 0,0 0,7 2,1 6,9 4 2 12 7 SE 1003,4 4,2 0 0,0
21.01.2018 00:00:00 0,4 0,1 0,0 0,8 2,1 6,9 8 4 19 10 WSW 1002,7 6 0 1,7
20.01.2018 23:00:00 1,6 1,0 0,9 0,9 2,2 6,9 8 4 14 7 SSW 1002,1 3,8 0 0,0
20.01.2018 22:00:00 0,9 0,3 -1,1 0,9 2,2 6,9 5 3 9 5 S 1001,6 3,1 0 0,0
20.01.2018 21:00:00 1,3 0,6 -0,5 1,3 2,2 6,9 8 4 11 6 S 1001,1 4,3 0 0,0
20.01.2018 20:00:00 2,0 1,0 1,0 1,6 2,2 6,9 7 4 12 7 S 1000,8 6 0 0,0
20.01.2018 19:00:00 2,4 1,2 1,8 1,9 2,2 6,9 8 4 13 7 S 1000,8 6 0 0,0
20.01.2018 18:00:00 2,4 1,2 2,0 2,0 2,1 6,9 6 4 13 7 S 1000,5 6 0 0,0
20.01.2018 17:00:00 2,5 1,1 2,3 2,1 2,0 6,9 9 5 21 11 SSW 1000,5 7 0 0,0
20.01.2018 16:00:00 2,4 1,3 2,5 2,2 2,0 6,9 11 6 24 13 S 1000,6 5 0 0,0
20.01.2018 15:00:00 2,3 1,1 2,5 2,1 1,9 6,9 11 6 24 13 S 1000,9 6 0 0,0
20.01.2018 14:00:00 2,1 1,1 2,5 2,0 1,8 6,9 15 8 31 17 SSW 1001,3 4,7 0 0,0
20.01.2018 13:00:00 1,7 0,8 2,3 1,4 1,8 6,9 17 9 35 19 SSW 1002,2 3,8 0 0,0
20.01.2018 12:00:00 1,3 0,7 1,6 0,6 1,8 6,9 23 12 37 20 SSW 1003,0 2,9 0 0,0
20.01.2018 11:00:00 1,2 0,4 1,1 0,5 1,9 6,9 25 13 38 21 SSW 1003,2 3,8 6 0,0
20.01.2018 10:00:00 1,0 0,1 0,5 0,5 1,9 6,9 18 10 29 16 SSW 1003,4 4,3 0 0,0
20.01.2018 09:00:00 0,7 -0,1 -0,2 0,5 1,9 6,9 20 11 30 16 SSW 1003,5 4,6 0 0,0
20.01.2018 08:00:00 0,9 0,0 0,3 0,5 1,9 6,9 17 9 31 17 SSW 1003,6 7 0 0,0
20.01.2018 07:00:00 0,7 0,0 -0,3 0,5 2,0 6,9 17 9 29 15 SSW 1003,7 7 0 0,0
20.01.2018 06:00:00 0,9 0,2 -0,1 0,5 2,0 6,9 19 11 31 17 SSW 1004,2 6 0 0,0
20.01.2018 05:00:00 1,0 0,3 0,4 0,6 2,1 6,9 20 11 33 18 SSW 1004,4 7 0 0,0
20.01.2018 04:00:00 1,0 0,1 0,7 0,6 2,1 6,9 21 11 36 19 SW 1005,0 10 0 0,0
20.01.2018 03:00:00 1,2 0,1 0,7 0,6 2,1 6,9 16 9 27 15 SW 1005,2 11 0 0,0
20.01.2018 02:00:00 1,5 0,0 0,4 0,6 2,2 6,9 14 8 25 13 SW 1005,5 10 0 0,0
20.01.2018 01:00:00 1,5 0,3 0,3 0,7 2,3 6,9 14 8 30 16 SSW 1005,5 10 0 0,0
20.01.2018 00:00:00 1,3 0,3 0,0 0,7 2,3 7,0 17 9 29 16 SSW 1005,6 17 0 0,0
19.01.2018 23:00:00 1,8 0,5 0,9 0,9 2,4 7,0 14 8 29 16 SW 1005,8 19 0 0,0
19.01.2018 22:00:00 1,8 0,0 0,4 1,0 2,4 7,0 12 6 22 12 SSW 1005,5 44 0 0,0
19.01.2018 21:00:00 2,5 0,8 1,6 1,3 2,4 7,0 10 5 28 15 SW 1005,6 11 0 0,1
19.01.2018 20:00:00 2,7 0,7 1,5 1,3 2,4 7,0 15 8 26 14 SW 1005,5 31 0 0,0
19.01.2018 19:00:00 2,8 0,6 1,2 1,5 2,4 7,0 14 8 21 12 SSW 1005,5 32 0 0,0
19.01.2018 18:00:00 3,2 0,8 1,5 2,0 2,4 7,0 10 5 22 12 SW 1005,4 31 0 0,0
19.01.2018 17:00:00 3,1 0,5 1,6 2,7 2,3 7,0 10 5 27 14 SW 1005,3 44 0 0,0
19.01.2018 16:00:00 4,3 1,3 3,4 3,0 2,2 7,0 12 7 24 13 SW 1005,3 37 3 0,1
19.01.2018 15:00:00 4,0 1,5 3,6 2,9 2,1 7,0 12 7 28 15 WSW 1005,2 8 3 0,0
19.01.2018 14:00:00 4,4 1,8 4,2 2,5 2,0 7,0 14 8 29 16 WSW 1004,9 35 14 0,0
19.01.2018 13:00:00 3,6 1,5 3,2 1,7 2,0 7,0 17 9 31 17 SW 1004,8 24 45 0,0
19.01.2018 12:00:00 3,3 1,7 3,0 1,0 2,0 7,0 14 8 27 15 SSW 1004,8 16 16 0,0
19.01.2018 11:00:00 2,4 1,3 2,0 0,8 2,0 7,0 11 6 24 13 WSW 1004,6 18 15 0,0
19.01.2018 10:00:00 1,7 1,0 1,2 0,7 2,0 7,0 15 8 22 12 SSW 1004,1 8 22 0,0
19.01.2018 09:00:00 1,8 1,1 1,1 0,6 2,1 7,0 10 6 19 11 SW 1003,5 7 0 0,1
19.01.2018 08:00:00 1,5 0,6 0,5 0,6 2,1 7,0 9 5 19 10 WSW 1002,9 11 0 0,0
19.01.2018 07:00:00 1,3 0,6 0,3 0,6 2,2 7,0 10 5 16 9 WSW 1002,2 5 0 0,0
19.01.2018 06:00:00 1,0 0,3 -0,8 0,7 2,2 7,0 6 3 11 6 WSW 1001,8 9 0 0,0
19.01.2018 05:00:00 1,2 0,5 0,0 0,7 2,2 7,0 9 5 25 13 SW 1001,4 10 0 1,4
19.01.2018 04:00:00 1,7 0,6 0,8 0,7 2,3 7,0 15 8 31 17 WSW 1001,3 2,0 0 0,3
19.01.2018 03:00:00 1,3 0,4 -0,3 0,8 2,4 7,0 9 5 16 8 SW 1000,9 32 0 0,0
19.01.2018 02:00:00 1,3 0,3 -0,1 0,9 2,4 7,0 12 7 18 10 SW 1000,6 26 0 0,0
19.01.2018 01:00:00 1,4 0,2 -0,1 0,9 2,5 7,0 9 5 15 8 SW 1000,3 43 0 0,0
19.01.2018 00:00:00 1,3 0,6 -0,1 1,2 2,5 7,0 6 3 19 10 W 1000,1 37 0 0,0
18.01.2018 23:00:00 1,6 0,7 -0,3 1,4 2,5 7,0 6 3 21 11 NW 999,7 36 0 0,0
18.01.2018 22:00:00 2,2 0,6 0,6 1,8 2,5 7,0 9 5 26 14 WSW 999,3 51 0 0,0
18.01.2018 21:00:00 2,6 1,5 2,0 2,0 2,5 7,0 19 11 30 16 W 998,8 21 0 0,3
18.01.2018 20:00:00 3,0 1,6 2,3 2,1 2,5 7,0 13 7 25 13 WSW 998,1 26 0 0,0
18.01.2018 19:00:00 2,7 1,1 2,0 2,2 2,5 7,0 17 9 45 24 W 997,3 40 0 0,6
18.01.2018 18:00:00 2,7 1,2 2,0 2,5 2,4 7,0 21 12 42 23 NW 996,7 41 0 0,7
18.01.2018 17:00:00 3,4 1,5 2,7 2,7 2,3 7,0 20 11 42 23 WNW 995,8 47 0 0,4
18.01.2018 16:00:00 3,6 1,7 2,8 2,9 2,2 7,1 19 11 42 23 WNW 994,4 70 0 0,1
18.01.2018 15:00:00 4,1 1,5 3,9 2,7 2,1 7,1 31 17 61 33 NW 992,6 24 8 0,0
18.01.2018 14:00:00 3,3 1,8 3,1 2,2 2,1 7,1 45 24 72 39 NW 989,2 40 0 0,0
18.01.2018 13:00:00 2,6 1,2 2,3 1,6 2,1 7,1 54 29 79 42 NW 982,6 19 0 0,8
18.01.2018 12:00:00 4,9 3,4 3,9 1,1 2,1 7,1 21 12 47 25 WSW 977,2 9 0 0,0
18.01.2018 11:00:00 5,2 3,0 4,0 0,7 2,2 7,1 24 13 56 30 WSW 977,1 25 0 1,4
18.01.2018 10:00:00 3,5 2,9 2,3 0,7 2,2 7,1 18 10 34 18 SSW 978,1 21 0 1,2
18.01.2018 09:00:00 0,3 0,3 0,0 0,8 2,2 7,1 27 15 44 24 SE 980,5 3,2 0 2,7
18.01.2018 08:00:00 0,1 0,0 0,0 1,0 2,2 7,1 32 17 46 25 ESE 983,4 0,8 0 3,1
18.01.2018 07:00:00 1,0 0,5 0,4 1,5 2,2 7,1 29 16 41 22 SE 987,5 1,7 0 2,1
18.01.2018 06:00:00 2,8 1,5 2,2 1,4 2,2 7,1 22 12 34 19 S 991,0 10 0 0,3
18.01.2018 05:00:00 2,9 1,3 2,3 1,2 2,2 7,1 21 12 38 21 SSW 994,4 8 0 0,0
18.01.2018 04:00:00 3,1 1,2 2,2 1,1 2,2 7,1 14 8 28 15 S 996,3 23 0 0,0
18.01.2018 03:00:00 3,6 1,2 2,2 1,1 2,2 7,1 15 8 25 13 SSW 997,8 24 0 0,1
18.01.2018 02:00:00 2,4 1,1 1,9 1,1 2,2 7,1 19 10 56 30 WSW 999,3 11 0 0,9
18.01.2018 01:00:00 3,8 0,6 2,6 1,0 2,3 7,1 22 12 39 21 WSW 1000,1 25 0 0,0
18.01.2018 00:00:00 3,7 1,2 2,6 0,9 2,3 7,1 15 8 36 19 SW 1000,6 22 0 0,3
17.01.2018 23:00:00 3,3 0,9 2,0 0,8 2,4 7,1 21 11 43 23 WSW 1000,4 14 0 0,4
17.01.2018 22:00:00 3,2 1,1 1,9 0,9 2,4 7,1 16 9 30 16 SW 1000,6 18 0 0,0
17.01.2018 21:00:00 1,8 0,7 0,8 1,0 2,4 7,1 9 5 19 10 WSW 1000,4 19 0 1,5
17.01.2018 20:00:00 1,6 0,2 1,0 1,1 2,5 7,1 13 7 58 32 W 1000,2 23 0 0,4
17.01.2018 19:00:00 2,4 0,5 1,0 1,3 2,5 7,1 11 6 30 16 SW 999,8 22 0 0,5
17.01.2018 18:00:00 1,5 0,3 0,3 1,7 2,5 7,1 16 8 66 36 WNW 999,2 18 0 1,1
17.01.2018 17:00:00 2,7 1,0 1,9 2,1 2,4 7,1 18 10 35 19 W 997,8 35 0 0,7
17.01.2018 16:00:00 1,8 0,8 1,3 2,4 2,3 7,1 26 14 49 26 W 996,8 30 0 0,8
17.01.2018 15:00:00 3,2 1,0 2,5 2,7 2,3 7,1 17 9 34 18 WSW 995,6 17 43 0,0
17.01.2018 14:00:00 3,2 0,3 3,3 2,4 2,2 7,1 21 11 36 20 WSW 994,8 25 19 0,0
17.01.2018 13:00:00 3,6 1,1 3,7 1,4 2,2 7,1 14 8 32 17 SW 994,3 30 17 0,4
17.01.2018 12:00:00 1,8 -0,1 1,0 1,0 2,2 7,1 21 11 42 23 W 994,4 5 0 0,0
17.01.2018 11:00:00 1,5 -0,1 0,7 0,8 2,3 7,1 10 5 39 21 WSW 993,7 34 0 0,6
17.01.2018 10:00:00 2,2 -0,2 1,4 0,7 2,3 7,1 18 10 31 17 WSW 992,8 23 0 0,0
17.01.2018 09:00:00 1,5 0,0 0,8 0,7 2,4 7,1 20 11 37 20 WSW 991,8 20 0 0,0
17.01.2018 08:00:00 1,4 0,0 0,7 0,7 2,4 7,2 15 8 29 16 WSW 990,5 26 0 0,0
17.01.2018 07:00:00 1,4 0,0 0,7 0,7 2,5 7,2 18 10 - - WSW 989,3 32 0 0,0
17.01.2018 06:00:00 0,7 0,0 0,0 0,8 2,5 7,2 13 7 25 14 SW 988,8 23 0 1,1
17.01.2018 05:00:00 0,3 -0,1 0,0 0,9 2,6 7,2 20 11 34 18 W 988,4 4,7 0 0,4
17.01.2018 04:00:00 1,6 -0,1 0,1 1,0 2,7 7,2 16 9 28 15 SW 987,9 33 0 0,0
17.01.2018 03:00:00 1,8 0,0 0,7 1,1 2,7 7,2 15 8 29 16 SW 987,9 28 0 0,0
17.01.2018 02:00:00 1,7 0,4 0,3 1,4 2,8 7,2 16 9 30 16 SSW 987,8 28 0 0,2

tt = Température de l'air
td = dewpoint
tt 5cm = Température de l'air 5cm
tt -5cm = Température de l'air -5cm
tt -20cm = Température de l'air -20cm
tt -100cm = Température de l'air -100cm
ff = Vitesse du vent
fx = gusts
dd = Direction du vent
ppp = reduced air pressure
vv = visibility
sd = Ensoleillement
rr = Quantités de précipitations

stations d'obs. à proximité